Location: *
(46.1006°N, 1.8394°E)
Time: 14:49:01
(UTC+00:00)

Cosmos 407 Rocket - Pass Details

Date: 20 September 2019
Orbit: 744 x 786 km, 74.0° (Epoch: 19 October)

Event Time Altitude Azimuth Distance (km) Brightness Sun altitude
Rises 18:35:54 0° 343° (NNW) 3,204 7.1 -7.9°
Reaches altitude 10° 18:38:25 10° 351° (N) 2,273 6.2 -8.3°
Maximum altitude 18:43:15 41° 61° (ENE) 1,084 4.0 -9.1°
Drops below altitude 10° 18:48:03 10° 131° (SE) 2,256 5.4 -10.0°
Enters shadow 18:48:24 - 133° (SE) 2,380 5.5 -10.0°
